Погода в Симферополе

Погода в Симферополе : погода сейчас, прогноз погоды и архив. Всё, что Вы хотите узнать о погоде в Симферополе!

Хотите узнать прогноз погоды в Симферополе? Тогда Вам сюда: Погода в Симферополе

Поиск расширенной информации на нашем сайте:

Другие новости

Новости СМИ2

Главная страница сайта

Новости сайта

03.07.2017

Напоминаем, что на нашем специализированном сайте Метеоцентр.Азия вы можете получить высокодетализированные автоматические прогнозы погоды по пунктам России, СНГ и мира в авиационном формате (включающие направление и скорость ветра, видимость, явления погоды, количество и форму облачности, нижнюю и верхнюю границу облачности).


Погода в Симферополе - сегодня

Время (UTC), дата Ветер
(°,м/с) 
Видим.   Явления Облачность Т
(°С)
Тd
(°С)
f(%) Тe
(°С)
Pmin
(гПа)
dP
(гПа)
Po
(мм)
O2
(г/м3)
Тmin Tmax R s Состояние
почвы
12 20.08.17 050 (СВ) 9-14{14}  10 км    3/3 1000 м кучево-дожд. 
[Cb calv]
+32.4 +15.9 37 +43  1011.3  -1.1  743  264           
15 20.08.17 070 (В) 7-12{14}  10 км    1/1 1500 м 
[Cu med, cong]
+29.6 +16.8 46 +42  1011  -0.5  743  266           
18 20.08.17 070 (В) 6{12}  10 км    ясно 
+24.8 +16.3 59 +36  1011.6  0.3  743  271    +33.1       
21 20.08.17 070 (В) 10 км    ясно 
+21 +16.8 77 +33  1010.8  -1.1  742  274           
00 21.08.17 130 (ЮВ) 10 км    ясно 
+20.3 +16.1 77 +31  1010.1  -0.7  742  275           
03 21.08.17 080 (В) 10 км    ясно 
+18 +14.9 82 +28  1010  -0.3  742  277  +17.9         
06 21.08.17 150 (ЮВ) 10 км    1/0 средняя 
[Ac cast]
+28.9 +15.4 44 +39  1008.5  -0.7  741  267  +17.8         
09 21.08.17 340 (С) 3-10{10}  10 км    3/1 1500 м средняя 
[Cu hum|Ac lent]
+32 +14.2 34 +40  1007.3  -1  740  264           
12 21.08.17 270 (З) 8-10{10}  10 км    3/3 1000 м кучево-дожд. 
[Cb calv]
+30.7 +19.1 50 +48  1005.7  -1.6  739  263           
15 21.08.17 290 (З) 3{10}  10 км  в посл. час ливневой дождь{гроза}  8/3 1000 м кучево-дожд., средняя, верхняя 
[Cb calv|Ac cuf|Ci sp]
+27.4 +21 68 +49  1005.9  739  265         
18 21.08.17 250 (З) 10 км  гроза без осадков{ливн. осадки}  10/5 1000 м кучево-дожд., средняя, верхняя 
[Cb cap|Ac trans|Ci fib]
+22.5 +20.4 88 +43  1007.3  1.1  740  270    +33.6     
21 21.08.17 180 (Ю) 10 км  {гроза}  9/3 1000 м кучево-дожд., средняя 
[Cb calv|Ac trans]
+20.8 +18.7 88 +37  1005.7  -1.7  739  272           
00 22.08.17 180 (Ю) 10 км  {гроза}  6/0 средняя 
[Ac trans]
+19.5 +17.6 89 +35  1005.5  -0.3  739  274           
03 22.08.17 180 (Ю) 10 км  {гроза}  6/0 средняя 
[Ac trans]
+19.5 +17.6 89 +35  1005.5  -0.3  739  274           
06 22.08.17 020 (С) 10 км  {гроза}  10/4 300 м кучево-дожд., средняя 
[Cb calv|Ac und]
+22.2 +18.8 81 +39  1004.2  -0.7  738  270  +18.4         
09 22.08.17 280 (З) 10 км  слаб. ливневой дождь  10/10 1410 м кучево-дожд. 
[Cb cap]
+20 +18.8 93 +37  1004.1  -0.3  737  272           
12 22.08.17 280 (З) 7-10  10 км  {ливн. осадки}  10/8 1050 м кучево-дожд., средняя 
[Cb calv|Ac und]
+22.6 +17.5 73 +36  1005.9  739  271           
15 22.08.17 280 (З) 7-12  10 км    9/9 930 м кучево-дожд. 
[Cb calv]
+21.6 +17 75 +34  1007.2  1.2  740  272         
18 22.08.17 270 (З) 2{12}  10 км    8/3 1500 м верхняя 
[Sc|Ci fib]
+18.6 +16.8 89 +32  1009.1  1.6  741  276    +24.8     
21 22.08.17 300 (СЗ) 10 км    10/10 1080 м 
[Sc]
+18.2 +16.2 88 +30  1009.5  0.4  741  277           
00 23.08.17 230 (ЮЗ) 10 км  в посл. час ливневой дождь  10/5 1000 м кучево-дожд., средняя 
[Cb calv|Ac und]
+16.3 +15.7 96 +27  1010.1  0.4  742  279           
03 23.08.17 250 (З) 10 км    10/3 1000 м кучево-дожд., верхняя 
[Cb calv|Ci fib]
+15 +13.5 91 +21  1011.6  1.4  743  281  +14.9    0.3     
06 23.08.17 300 (СЗ) 10 км    4/3 600 м средняя 
[Cu med, cong|Ac trans]
+18.5 +12.9 70 +24  1013.3  1.9  744  278  +14.7    0.3     
09 23.08.17 270 (З) 6{10}  10 км    8/8 1230 м 
[Cu Sc]
+21 +10.8 52 +23  1013.8  0.6  745  277           
12 23.08.17 270 (З) 8-12{14}  10 км    4/4 1350 м 
[Cu med, cong]
+22.4 +10.5 47 +24  1014.4  0.7  745  276           
Время (UTC), дата Ветер
(°,м/с) 
Видим.   Явления Облачность Т
(°С)
Тd
(°С)
f(%) Тe
(°С)
Pmin
(гПа)
dP
(гПа)
Po
(мм)
O2
(г/м3)
Тmin Tmax R s Состояние
почвы

Для получения пояснительной информации подведите курсор к названию столбца.

ПОГОДА в Симферополе - архив

Всё, что Вы хотите узнать о погоде в Симферополе - удобно и подробно!

Выберите нужную дату (начиная с 1 января 2015* года) и нажмите кнопку "Найти".
Будут отображены архивные сводки погоды по пункту Симферополь, начиная с указанной даты.


Отображать данные в формате CSV (для использования в таблицах Excel)


Внимание! Наш архив погоды предназначен исключительно для личного некоммерческого использования в познавательных целях. Если Вам необходимы официальные справки о состоянии погоды (для производственных, юридических, коммерческих и т.п. целей), обращайтесь в органы Росгидромета.

*Примечание: данная дата относится к архиву по метеостанциям СССР (Россия, СНГ, Балтия).
Архив по метеостанциям Зарубежной Европы и Азии (кроме Китая) хранится 10 дней, по другим регионам земного шара (Китай, Африка, Америка, Австралия, Океания) - 1 день.

Симферополь - район местоположения метеостанции


Название, широта, долгота, высота метеостанции:
Симферополь 44.7°ш. 34.1°д. 181 м над ур. моря [Российская Федерация]

Дополнительная информация

В oтличие oт бoльшинства пoгoдных сайтoв мы публикуем пoдрoбную метеoинфoрмацию в детальнoм прoфессиoнальнoм фoрмате.

Характеристики температуры и влажнoсти вoздуха измеряются на высoте 2 м в тени вдали oт зданий и деревьев.
Скoрoсть ветра измеряется на высoте 10 м (на урoвне рoста челoвека скoрoсть ветра ниже в 1.5-2 раза). Если метеoстанция нахoдится в гoрoде или в лесу, тo скoрoсть ветра занижена на 2-4 м/с пo сравнению с oткрытым местoм. Скoрoсть ветра над акватoриями крупных рек и oзёр, а также на вершинах хoлмoв на 2-5 м/с выше, чем в oбычных услoвиях.
Атмoсфернoе давление в разных тoчках местнoсти мoжет значительнo oтличаться oт давления на метеoстанции, в зависимoсти oт услoвий рельефа (при пoдъёме на 10 м давление пoнижается примернo на 1 мм рт.ст.).